カタログに戻る

BOTSAT-1

運用中通信SSO
NORAD 63216·PAYLOAD·🇧🇼 Botswana

打ち上げ Mar 15, 2025 から Vandenberg Space Force Base

Loading…

次のパス (今後24時間)

TLE

最新Source: Space-Track

元期: Sep 14, 2026, 10:17 UTC

1 63216U 25052G   26257.42853098  .00006926  00000-0  25267-3 0  9991
2 63216  97.3749 150.4180 0003222 131.7374 228.4141 15.28460796 83587

AllMySatでBOTSAT-1をリアルタイム追跡

Download on the App Store